Concordia, KS

4:09 AM CDT on May 23, 2017 (GMT -0500)
Blosser Municipal

Weather History for KCNK - January, 2013

Change the Weather History Date:

Wednesday, January 16, 2013

  Actual Average Record
Temperature  
Mean Temperature 38 °F 28 °F  
Max Temperature 54 °F 39 °F 72 °F (1894)
Min Temperature 22 °F 19 °F -18 °F (1888)
Degree Days  
Heating Degree Days 27 36  
Month to date heating degree days 601 590  
Since 1 July heating degree days 2628 2767  
Cooling Degree Days 0 0  
Month to date cooling degree days 0 0  
Year to date cooling degree days 0 0  
Moisture  
Dew Point 24 °F    
Average Humidity 55    
Maximum Humidity 75    
Minimum Humidity 35    
Precipitation  
Precipitation 0.00 in 0.01 in 0.96 in (2017)
Month to date precipitation 0.37 0.24  
Year to date precipitation 0.37 0.24  
Snow  
Snow 0.00 in 0.20 in 5.00 in (2008)
Month to date snowfall T 2.7  
Year to date snowfall T 2.7  
Since 1 July snowfall 8.5 9.2  
Snow Depth 0.00 in    
Sea Level Pressure  
Sea Level Pressure 30.11 in    
Wind  
Wind Speed 11 mph (West)    
Max Wind Speed 18 mph    
Max Gust Speed 23 mph    
Visibility 10 miles    
Events      
T = Trace of Precipitation, MM = Missing Value Source: NWS Daily Summary

Daily Weather History Graph

Daily Weather History Graph

Search for Another Location

Airport or City:

Trip Planner

Search our weather history database for the weather conditions in past years. The results will help you decide how hot, cold, wet, or windy it might be!

Date:

Astronomy

Jan. 16, 2013 Rise Set
Actual Time 7:48 AM CST 5:32 PM CST
Civil Twilight 7:19 AM CST 6:01 PM CST
Nautical Twilight 6:46 AM CST 6:35 PM CST
Astronomical Twilight 6:14 AM CST 7:07 PM CST
Moon 10:27 AM CST (1/16) 11:23 PM CST (1/16)
Length of Visible Light 10h 42m
Length of Day
9h 43m
Waxing Crescent, 28% of the Moon is Illuminated
Jan 16
Waxing Crescent
Jan 18
First Quarter
Jan 26
Full
Feb 3
Last Quarter
Feb 10
New

Hourly Weather History & Observations

Time (CST) Temp. Windchill Dew Point Humidity Pressure Visibility Wind Dir Wind Speed Gust Speed Precip Events Conditions
12:55 AM 24.1 °F 12.5 °F 16.0 °F 71% 30.11 in 10.0 mi SW 12.7 mph - N/A   Clear
1:55 AM 24.1 °F 13.7 °F 16.0 °F 71% 30.11 in 10.0 mi SW 10.4 mph - N/A   Clear
2:55 AM 25.0 °F 13.1 °F 16.0 °F 69% 30.08 in 10.0 mi SW 13.8 mph - N/A   Clear
3:55 AM 24.1 °F 12.5 °F 16.0 °F 71% 30.07 in 10.0 mi WSW 12.7 mph - N/A   Clear
4:55 AM 23.0 °F 10.6 °F 15.1 °F 72% 30.04 in 10.0 mi WSW 13.8 mph - N/A   Scattered Clouds
5:55 AM 23.0 °F 11.7 °F 16.0 °F 74% 30.06 in 10.0 mi WSW 11.5 mph - N/A   Mostly Cloudy
6:55 AM 25.0 °F 13.6 °F 17.1 °F 72% 30.06 in 10.0 mi West 12.7 mph - N/A   Overcast
7:55 AM 27.0 °F 17.3 °F 19.0 °F 72% 30.06 in 10.0 mi West 10.4 mph - N/A   Overcast
8:55 AM 28.9 °F 19.2 °F 21.0 °F 72% 30.08 in 10.0 mi West 11.5 mph - N/A   Overcast
9:55 AM 36.0 °F 27.5 °F 25.0 °F 64% 30.08 in 10.0 mi WNW 12.7 mph - N/A   Clear
10:55 AM 42.1 °F 35.7 °F 28.0 °F 58% 30.08 in 10.0 mi WNW 11.5 mph - N/A   Clear
11:55 AM 48.9 °F - 30.0 °F 48% 30.06 in 10.0 mi NW 16.1 mph 20.7 mph N/A   Clear
12:55 PM 51.1 °F - 28.9 °F 43% 30.05 in 10.0 mi NNW 13.8 mph - N/A   Clear
1:55 PM 53.6 °F - 28.4 °F 38% 30.01 in 10.0 mi NW 13.8 mph - N/A   Clear
2:55 PM 54.0 °F - 28.0 °F 37% 30.04 in 10.0 mi NW 11.5 mph - N/A   Clear
3:55 PM 53.1 °F - 27.0 °F 37% 30.06 in 10.0 mi NW 8.1 mph - N/A   Clear
4:55 PM 50.0 °F - 27.0 °F 41% 30.09 in 10.0 mi WNW 8.1 mph - N/A   Clear
5:55 PM 43.0 °F 38.8 °F 26.1 °F 51% 30.12 in 10.0 mi West 6.9 mph - N/A   Clear
6:55 PM 39.9 °F 34.5 °F 28.0 °F 63% 30.14 in 10.0 mi West 8.1 mph - N/A   Clear
7:55 PM 37.9 °F 32.1 °F 28.0 °F 68% 30.18 in 10.0 mi West 8.1 mph - N/A   Clear
8:55 PM 37.9 °F 32.1 °F 27.0 °F 65% 30.20 in 10.0 mi NW 8.1 mph - N/A   Clear
9:55 PM 35.1 °F 28.6 °F 26.1 °F 70% 30.23 in 10.0 mi WNW 8.1 mph - N/A   Clear
10:55 PM 35.1 °F 29.3 °F 26.1 °F 70% 30.26 in 10.0 mi NNW 6.9 mph - N/A   Clear
11:55 PM 33.1 °F 27.7 °F 26.1 °F 75% 30.29 in 10.0 mi WNW 5.8 mph - N/A   Clear